DECAYED

SL-16 DEB, 42250 (Decayed)

Orbit data source: Space-Track

SL-16 DEB, 42250 was space debris in LEO originally from a launch on Fri, 26 Mar 1993 UTC launched from the Tyuratam Missile And Space Complex (TTMTR). Debris objects in space refer to the collection of defunct objects orbiting the Earth. Examples of debris include non-operational satellites, rocket bodies, and fragments generated from explosions, collisions, or faulty payload assembly.

Not visible in the next 10 days
Identifier
42250, 1993-016DE
Orbit
Decayed
Country
Flag of CISCIS
Related business
Manufacturer
Unknown
Mission
Decayed spacecraft
Bus & Motor
Unknown
Mass
Unknown
Launch date (UTC)
1993-03-26 (32 years ago)
Launch vehicle
Unknown
Launch site
Tyuratam Missile And Space Complex (TTMTR)
Object type
Payload
Rocket body
Debris
Shape & HBR
Unknown
Radar Cross Section
Small (<0.1 m²)

Expand to show TLE details & history
Last TLE update: 10 months ago

TLE from 10 months ago
0 SL-16 DEB
1 42250U 93016DE  24315.10376266  .16752230  00000-0  90591-1 0  9999
2 42250  70.9283  90.2544 0027389 344.1828  15.8518 15.75539387469085
Epoch: 2024-11-10T02:29Z
TLE epoch observation values (Epoch: 2024-11-10T02:29:25.093Z)
Latitude
-0.0001°
Longitude
3.15163°
Altitude
327.962 km
Speed
7.722 km/s
True Right ascension
06h 01m 01s
True Declination
0° 00' 00"
Sunlit
Object was in full shadow at epoch
Visualization orbit readout
Latitude
Unknown
Longitude
Unknown
Altitude
Unknown
Speed
Unknown
Apparent Right ascension
Unknown
Apparent Declination
Unknown
Sunlit
N/A
Visualization observer readout
Local Sidereal Time
23:06:22
Azimuth
Unknown
Elevation
Unknown
Doppler factor
Unknown
Orbital elements
Apogee altitude
359.277 km
Perigee altitude
322.472 km
Semi-major axis
6,719.011 km
Eccentricity
0.00274
Inclination
70.9283°
RAAN
90.2544°
Arg. of periapsis
344.1828°
True anomaly
15.93781°
Mean anomaly
15.8518°
Eccentric anomaly
15.89478°
Mean motion
3.94081 °/min
Orbital period
91.35 mins
BSTAR
0.090591
Loading maneuver chart data...
Computing Atmospheric mass density...
Loading historical data...
Loading historical data...
Loading historical data...
Loading historical data...
Loading historical data...
Loading historical data...
Loading historical data...

Documentation

Showing up to 5 results
|